QPF
0.02 0.03 0.04 0.05 0.06 0.08 0.12 0.15 0.11 0.08 0.06 0.05 0.08 0.12 0.12 0.11 0.10 0.11 0.11 0.11 0.11 0.13 0.15 0.14 0.10 0.08 0.06 0.06 0.05 0.05 0.04 0.02 0.02 0.02 0.01 0.01 0.01 0.02 0.01 0.01 0.01 0.01 0.01
0.03 0.01 0.01 0.02 0.02 0.05 0.08 0.12 0.13 0.11 0.09 0.07 0.07 0.10 0.10 0.10 0.10 0.10 0.10 0.11 0.12 0.11 0.13 0.14 0.12 0.10 0.08 0.08 0.07 0.05 0.05 0.04 0.02 0.02 0.02 0.02 0.02 0.02 0.02 0.01 0.01 0.01 0.01
0.03 0.01 0.02 0.02 0.02 0.03 0.05 0.08 0.11 0.10 0.09 0.08 0.08 0.09 0.10 0.09 0.09 0.09 0.08 0.09 0.12 0.12 0.11 0.14 0.13 0.12 0.11 0.10 0.10 0.07 0.04 0.04 0.04 0.03 0.04 0.03 0.02 0.02 0.02 0.02 0.01 0.01 0.01
0.01 0.01 0.02 0.02 0.02 0.03 0.04 0.06 0.07 0.08 0.08 0.06 0.06 0.08 0.08 0.08 0.08 0.08 0.07 0.07 0.10 0.11 0.11 0.11 0.12 0.12 0.11 0.12 0.13 0.12 0.08 0.05 0.04 0.04 0.04 0.04 0.03 0.02 0.02 0.02 0.01 0.01 0.01
0.01 0.01 0.01 0.01 0.02 0.03 0.04 0.05 0.06 0.06 0.06 0.05 0.04 0.06 0.06 0.05 0.07 0.07 0.07 0.07 0.09 0.11 0.11 0.10 0.10 0.10 0.09 0.09 0.10 0.10 0.11 0.09 0.06 0.05 0.05 0.04 0.03 0.03 0.02 0.02 0.02 0.01 0.01
0.01 0.00 0.01 0.01 0.01 0.02 0.03 0.03 0.04 0.06 0.06 0.05 0.03 0.04 0.05 0.04 0.04 0.05 0.06 0.06 0.07 0.08 0.10 0.11 0.10 0.09 0.08 0.07 0.07 0.07 0.08 0.09 0.09 0.07 0.06 0.06 0.05 0.04 0.03 0.02 0.02 0.02 0.01
0.01 0.00 0.01 0.02 0.02 0.03 0.03 0.02 0.03 0.04 0.05 0.05 0.04 0.04 0.05 0.05 0.04 0.04 0.04 0.04 0.06 0.06 0.07 0.08 0.09 0.09 0.07 0.06 0.06 0.06 0.06 0.07 0.08 0.09 0.08 0.07 0.06 0.05 0.04 0.03 0.03 0.03 0.02
0.01 0.01 0.01 0.01 0.01 0.02 0.02 0.02 0.02 0.03 0.04 0.04 0.04 0.04 0.05 0.06 0.05 0.04 0.03 0.03 0.04 0.04 0.05 0.06 0.06 0.08 0.07 0.05 0.05 0.04 0.04 0.05 0.06 0.06 0.08 0.07 0.06 0.05 0.05 0.04 0.03 0.03 0.02
0.01 0.02 0.01 0.00 0.00 0.01 0.02 0.03 0.03 0.03 0.03 0.03 0.04 0.05 0.05 0.06 0.06 0.04 0.03 0.02 0.03 0.03 0.03 0.04 0.04 0.05 0.07 0.06 0.05 0.04 0.04 0.03 0.03 0.04 0.04 0.05 0.05 0.04 0.04 0.04 0.03 0.03 0.02
0.00 0.01 0.00 0.00 0.01 0.01 0.02 0.02 0.03 0.03 0.03 0.03 0.04 0.04 0.04 0.05 0.06 0.05 0.03 0.02 0.03 0.03 0.03 0.03 0.03 0.03 0.04 0.05 0.05 0.05 0.04 0.03 0.03 0.03 0.03 0.03 0.03 0.03 0.02 0.03 0.03 0.03 0.03
0.00 0.00 0.00 0.00 0.01 0.01 0.01 0.02 0.02 0.02 0.03 0.03 0.03 0.03 0.03 0.05 0.07 0.07 0.05 0.03 0.03 0.03 0.03 0.02 0.03 0.03 0.03 0.03 0.04 0.04 0.04 0.03 0.03 0.03 0.02 0.02 0.02 0.02 0.01 0.02 0.02 0.03 0.03
0.00 0.00 0.00 0.00 0.01 0.01 0.01 0.01 0.02 0.02 0.03 0.03 0.03 0.03 0.02 0.03 0.05 0.06 0.06 0.04 0.03 0.03 0.03 0.02 0.02 0.02 0.02 0.02 0.02 0.03 0.03 0.04 0.03 0.03 0.02 0.02 0.02 0.02 0.01 0.02 0.02 0.03 0.03
0.00 0.00 0.00 0.01 0.01 0.01 0.01 0.02 0.02 0.03 0.04 0.03 0.03 0.04 0.03 0.02 0.03 0.04 0.05 0.04 0.03 0.03 0.03 0.02 0.02 0.01 0.01 0.01 0.02 0.02 0.02 0.02 0.03 0.03 0.03 0.02 0.02 0.02 0.02 0.02 0.02 0.03 0.03
0.00 0.00 0.00 0.00 0.01 0.01 0.02 0.02 0.03 0.02 0.03 0.03 0.03 0.03 0.04 0.03 0.03 0.03 0.03 0.04 0.03 0.03 0.03 0.03 0.02 0.01 0.01 0.01 0.02 0.02 0.01 0.01 0.01 0.02 0.03 0.03 0.03 0.02 0.02 0.02 0.02 0.02 0.02
0.00 0.00 0.00 0.00 0.01 0.01 0.02 0.02 0.03 0.03 0.02 0.03 0.04 0.05 0.06 0.06 0.05 0.04 0.04 0.04 0.04 0.03 0.02 0.02 0.02 0.02 0.02 0.01 0.01 0.02 0.02 0.01 0.01 0.01 0.01 0.02 0.03 0.03 0.02 0.02 0.02 0.02 0.02
0.00 0.00 0.00 0.00 0.01 0.01 0.01 0.02 0.03 0.03 0.02 0.02 0.04 0.06 0.07 0.08 0.08 0.06 0.04 0.04 0.04 0.03 0.02 0.02 0.02 0.02 0.02 0.02 0.02 0.02 0.02 0.02 0.01 0.01 0.01 0.01 0.01 0.02 0.02 0.02 0.02 0.03 0.02
0.01 0.01 0.00 0.00 0.00 0.01 0.01 0.02 0.03 0.04 0.03 0.02 0.02 0.04 0.06 0.09 0.11 0.09 0.06 0.05 0.04 0.04 0.03 0.03 0.03 0.03 0.02 0.03 0.02 0.02 0.02 0.02 0.02 0.01 0.01 0.01 0.01 0.01 0.01 0.02 0.02 0.02 0.03
0.01 0.01 0.01 0.00 0.00 0.01 0.01 0.02 0.03 0.04 0.04 0.03 0.03 0.04 0.05 0.07 0.09 0.10 0.09 0.07 0.06 0.05 0.05 0.03 0.03 0.03 0.03 0.03 0.02 0.02 0.02 0.02 0.02 0.02 0.01 0.01 0.01 0.01 0.01 0.02 0.02 0.02 0.02
0.01 0.01 0.01 0.01 0.01 0.01 0.02 0.02 0.04 0.04 0.04 0.04 0.03 0.03 0.04 0.05 0.07 0.09 0.08 0.07 0.07 0.06 0.06 0.05 0.04 0.04 0.05 0.04 0.03 0.03 0.02 0.02 0.03 0.03 0.02 0.01 0.01 0.02 0.02 0.02 0.02 0.02 0.02
0.01 0.01 0.01 0.01 0.01 0.02 0.02 0.03 0.04 0.04 0.04 0.03 0.03 0.03 0.04 0.05 0.07 0.07 0.07 0.07 0.06 0.06 0.06 0.06 0.05 0.05 0.05 0.05 0.04 0.04 0.03 0.03 0.03 0.04 0.03 0.03 0.02 0.02 0.02 0.02 0.02 0.02 0.01
0.01 0.01 0.01 0.01 0.01 0.02 0.02 0.03 0.04 0.05 0.04 0.03 0.03 0.03 0.03 0.05 0.06 0.06 0.06 0.06 0.06 0.05 0.06 0.06 0.05 0.04 0.05 0.05 0.05 0.05 0.04 0.04 0.04 0.04 0.04 0.03 0.02 0.02 0.02 0.02 0.02 0.02 0.02
0.01 0.01 0.01 0.02 0.02 0.02 0.02 0.03 0.04 0.04 0.05 0.04 0.04 0.03 0.03 0.03 0.04 0.05 0.05 0.05 0.05 0.05 0.06 0.06 0.05 0.05 0.04 0.05 0.05 0.05 0.05 0.05 0.05 0.04 0.04 0.03 0.03 0.02 0.02 0.02 0.02 0.02 0.02
0.01 0.01 0.01 0.02 0.02 0.02 0.02 0.02 0.03 0.03 0.04 0.05 0.05 0.04 0.04 0.03 0.04 0.04 0.04 0.04 0.04 0.04 0.04 0.05 0.04 0.04 0.04 0.04 0.05 0.06 0.06 0.06 0.06 0.05 0.05 0.04 0.03 0.03 0.02 0.02 0.02 0.02 0.01
0.01 0.01 0.01 0.02 0.03 0.02 0.02 0.03 0.03 0.03 0.03 0.04 0.04 0.04 0.04 0.03 0.04 0.03 0.03 0.03 0.03 0.03 0.03 0.03 0.03 0.03 0.03 0.03 0.04 0.04 0.05 0.05 0.05 0.05 0.05 0.04 0.03 0.03 0.03 0.03 0.02 0.02 0.01
0.01 0.01 0.01 0.02 0.04 0.03 0.03 0.03 0.04 0.04 0.03 0.03 0.03 0.04 0.04 0.03 0.03 0.03 0.03 0.03 0.03 0.03 0.02 0.02 0.01 0.01 0.01 0.02 0.02 0.02 0.03 0.03 0.03 0.03 0.03 0.03 0.03 0.03 0.02 0.02 0.02 0.02 0.01
0.01 0.01 0.01 0.01 0.03 0.03 0.03 0.02 0.03 0.03 0.03 0.02 0.02 0.02 0.03 0.02 0.02 0.02 0.02 0.02 0.02 0.02 0.01 0.01 0.01 0.01 0.01 0.01 0.01 0.01 0.01 0.02 0.02 0.03 0.03 0.03 0.03 0.03 0.02 0.02 0.02 0.02 0.02
MSLP
1017.94 1017.81 1017.57 1017.21 1016.77 1016.28 1015.78 1015.31 1014.91 1014.57 1014.30 1014.09 1013.91 1013.74 1013.55 1013.32 1013.06 1012.77 1012.46 1012.15 1011.88 1011.67 1011.57 1011.60 1011.78 1012.13 1012.65 1013.33 1014.15 1015.06 1016.04 1017.03 1017.98 1018.86 1019.64 1020.28 1020.78 1021.14 1021.37 1021.48 1021.51 1021.47 1021.39
1017.85 1017.78 1017.57 1017.25 1016.83 1016.34 1015.84 1015.37 1014.97 1014.65 1014.42 1014.26 1014.13 1014.01 1013.86 1013.67 1013.43 1013.14 1012.81 1012.49 1012.20 1011.97 1011.84 1011.85 1012.00 1012.30 1012.76 1013.37 1014.12 1014.97 1015.89 1016.86 1017.81 1018.72 1019.54 1020.25 1020.83 1021.26 1021.55 1021.72 1021.77 1021.76 1021.69
1017.60 1017.57 1017.43 1017.15 1016.77 1016.31 1015.84 1015.39 1015.02 1014.75 1014.57 1014.46 1014.39 1014.33 1014.22 1014.05 1013.82 1013.53 1013.20 1012.87 1012.56 1012.33 1012.18 1012.16 1012.27 1012.52 1012.92 1013.45 1014.10 1014.86 1015.71 1016.61 1017.53 1018.44 1019.29 1020.05 1020.69 1021.19 1021.55 1021.77 1021.87 1021.89 1021.85
1017.20 1017.23 1017.14 1016.92 1016.59 1016.19 1015.76 1015.37 1015.05 1014.83 1014.72 1014.67 1014.66 1014.64 1014.57 1014.44 1014.22 1013.93 1013.61 1013.27 1012.96 1012.72 1012.56 1012.52 1012.59 1012.78 1013.10 1013.53 1014.08 1014.73 1015.48 1016.30 1017.17 1018.04 1018.89 1019.68 1020.36 1020.92 1021.33 1021.61 1021.77 1021.83 1021.84
1016.72 1016.79 1016.76 1016.61 1016.34 1015.99 1015.62 1015.29 1015.03 1014.87 1014.81 1014.83 1014.88 1014.91 1014.89 1014.78 1014.59 1014.33 1014.01 1013.69 1013.38 1013.14 1012.97 1012.91 1012.94 1013.07 1013.31 1013.64 1014.08 1014.61 1015.24 1015.97 1016.75 1017.58 1018.40 1019.19 1019.89 1020.49 1020.95 1021.28 1021.49 1021.61 1021.67
1016.25 1016.36 1016.37 1016.27 1016.06 1015.77 1015.45 1015.16 1014.95 1014.84 1014.84 1014.90 1015.01 1015.09 1015.12 1015.06 1014.91 1014.68 1014.40 1014.09 1013.81 1013.57 1013.41 1013.32 1013.31 1013.39 1013.54 1013.78 1014.11 1014.53 1015.04 1015.66 1016.36 1017.12 1017.89 1018.65 1019.35 1019.96 1020.45 1020.82 1021.09 1021.26 1021.39
1015.86 1016.00 1016.05 1015.99 1015.82 1015.56 1015.27 1015.01 1014.83 1014.75 1014.77 1014.88 1015.02 1015.16 1015.24 1015.24 1015.15 1014.98 1014.74 1014.48 1014.23 1014.01 1013.85 1013.75 1013.71 1013.73 1013.82 1013.97 1014.20 1014.52 1014.93 1015.45 1016.05 1016.73 1017.45 1018.16 1018.83 1019.43 1019.93 1020.33 1020.64 1020.87 1021.06
1015.59 1015.76 1015.85 1015.81 1015.66 1015.41 1015.13 1014.87 1014.69 1014.61 1014.64 1014.76 1014.93 1015.11 1015.25 1015.31 1015.29 1015.19 1015.03 1014.83 1014.63 1014.44 1014.29 1014.19 1014.13 1014.11 1014.14 1014.23 1014.38 1014.61 1014.94 1015.37 1015.89 1016.49 1017.13 1017.78 1018.41 1018.98 1019.47 1019.88 1020.21 1020.49 1020.73
1015.46 1015.66 1015.77 1015.75 1015.60 1015.36 1015.06 1014.78 1014.57 1014.46 1014.47 1014.58 1014.76 1014.96 1015.15 1015.28 1015.34 1015.32 1015.24 1015.12 1014.97 1014.83 1014.71 1014.61 1014.54 1014.50 1014.50 1014.55 1014.65 1014.83 1015.09 1015.45 1015.90 1016.43 1017.00 1017.58 1018.15 1018.68 1019.14 1019.54 1019.89 1020.19 1020.48
1015.40 1015.63 1015.77 1015.78 1015.64 1015.38 1015.06 1014.74 1014.49 1014.33 1014.29 1014.37 1014.54 1014.75 1014.97 1015.15 1015.28 1015.35 1015.36 1015.32 1015.25 1015.16 1015.07 1015.00 1014.94 1014.89 1014.88 1014.91 1014.99 1015.14 1015.37 1015.69 1016.09 1016.55 1017.05 1017.57 1018.08 1018.55 1018.97 1019.34 1019.68 1019.99 1020.31
1015.33 1015.62 1015.80 1015.83 1015.71 1015.46 1015.13 1014.77 1014.47 1014.26 1014.16 1014.19 1014.32 1014.51 1014.74 1014.96 1015.15 1015.29 1015.38 1015.41 1015.42 1015.39 1015.35 1015.31 1015.27 1015.25 1015.25 1015.29 1015.37 1015.52 1015.74 1016.03 1016.40 1016.81 1017.26 1017.71 1018.15 1018.57 1018.94 1019.28 1019.59 1019.90 1020.22
1015.18 1015.52 1015.76 1015.84 1015.76 1015.53 1015.21 1014.84 1014.50 1014.24 1014.08 1014.05 1014.12 1014.29 1014.50 1014.73 1014.96 1015.15 1015.30 1015.41 1015.48 1015.52 1015.53 1015.53 1015.53 1015.54 1015.57 1015.63 1015.73 1015.90 1016.13 1016.42 1016.76 1017.14 1017.54 1017.94 1018.33 1018.68 1019.00 1019.30 1019.59 1019.88 1020.20
1014.90 1015.30 1015.60 1015.74 1015.72 1015.54 1015.25 1014.90 1014.55 1014.26 1014.05 1013.96 1013.97 1014.08 1014.26 1014.48 1014.71 1014.94 1015.13 1015.30 1015.43 1015.52 1015.59 1015.65 1015.69 1015.74 1015.81 1015.90 1016.04 1016.23 1016.48 1016.77 1017.11 1017.47 1017.83 1018.18 1018.51 1018.82 1019.09 1019.36 1019.62 1019.89 1020.19
1014.50 1014.94 1015.29 1015.51 1015.56 1015.45 1015.23 1014.92 1014.59 1014.28 1014.04 1013.90 1013.85 1013.90 1014.03 1014.21 1014.43 1014.66 1014.88 1015.09 1015.27 1015.42 1015.54 1015.65 1015.74 1015.84 1015.95 1016.09 1016.26 1016.48 1016.74 1017.04 1017.37 1017.71 1018.05 1018.37 1018.66 1018.93 1019.17 1019.41 1019.65 1019.91 1020.20
1014.01 1014.48 1014.87 1015.14 1015.27 1015.25 1015.10 1014.86 1014.57 1014.28 1014.02 1013.84 1013.73 1013.71 1013.78 1013.92 1014.11 1014.33 1014.56 1014.80 1015.02 1015.22 1015.40 1015.56 1015.70 1015.84 1015.99 1016.17 1016.37 1016.61 1016.88 1017.19 1017.51 1017.84 1018.16 1018.46 1018.73 1018.98 1019.21 1019.43 1019.66 1019.91 1020.20
1013.54 1013.98 1014.38 1014.69 1014.88 1014.94 1014.88 1014.71 1014.48 1014.21 1013.96 1013.74 1013.58 1013.51 1013.51 1013.59 1013.74 1013.95 1014.19 1014.44 1014.70 1014.95 1015.17 1015.38 1015.58 1015.76 1015.95 1016.15 1016.38 1016.63 1016.91 1017.21 1017.53 1017.85 1018.16 1018.45 1018.72 1018.97 1019.20 1019.43 1019.66 1019.92 1020.21
1013.15 1013.54 1013.91 1014.23 1014.46 1014.58 1014.58 1014.49 1014.31 1014.07 1013.82 1013.58 1013.39 1013.25 1013.20 1013.23 1013.35 1013.53 1013.77 1014.04 1014.33 1014.62 1014.90 1015.16 1015.40 1015.63 1015.85 1016.07 1016.31 1016.57 1016.85 1017.16 1017.47 1017.79 1018.10 1018.40 1018.67 1018.93 1019.18 1019.43 1019.68 1019.95 1020.25
1012.94 1013.24 1013.56 1013.85 1014.08 1014.23 1014.27 1014.22 1014.08 1013.87 1013.62 1013.37 1013.14 1012.96 1012.86 1012.85 1012.93 1013.10 1013.33 1013.63 1013.95 1014.28 1014.61 1014.92 1015.20 1015.46 1015.71 1015.95 1016.21 1016.47 1016.76 1017.06 1017.38 1017.70 1018.02 1018.33 1018.63 1018.92 1019.20 1019.47 1019.75 1020.04 1020.35
1012.94 1013.14 1013.38 1013.61 1013.81 1013.95 1014.00 1013.97 1013.84 1013.64 1013.39 1013.11 1012.85 1012.64 1012.50 1012.46 1012.52 1012.67 1012.92 1013.23 1013.58 1013.95 1014.32 1014.67 1014.99 1015.29 1015.56 1015.83 1016.09 1016.37 1016.67 1016.98 1017.31 1017.65 1017.99 1018.33 1018.65 1018.97 1019.28 1019.58 1019.88 1020.19 1020.50
1013.14 1013.25 1013.40 1013.56 1013.70 1013.80 1013.83 1013.78 1013.65 1013.43 1013.17 1012.87 1012.59 1012.35 1012.18 1012.11 1012.15 1012.30 1012.55 1012.88 1013.25 1013.65 1014.05 1014.44 1014.80 1015.12 1015.43 1015.72 1016.01 1016.30 1016.62 1016.95 1017.30 1017.67 1018.04 1018.40 1018.76 1019.11 1019.44 1019.77 1020.08 1020.40 1020.71
1013.50 1013.54 1013.61 1013.70 1013.77 1013.82 1013.80 1013.71 1013.55 1013.30 1013.01 1012.70 1012.39 1012.13 1011.94 1011.86 1011.89 1012.04 1012.28 1012.62 1013.01 1013.42 1013.85 1014.25 1014.64 1014.99 1015.32 1015.64 1015.96 1016.28 1016.63 1016.99 1017.37 1017.77 1018.17 1018.57 1018.95 1019.32 1019.67 1020.01 1020.33 1020.64 1020.95
1013.98 1013.97 1013.99 1014.01 1014.02 1014.00 1013.92 1013.78 1013.57 1013.29 1012.97 1012.64 1012.31 1012.04 1011.84 1011.75 1011.77 1011.91 1012.15 1012.48 1012.87 1013.29 1013.72 1014.13 1014.53 1014.90 1015.26 1015.60 1015.95 1016.32 1016.70 1017.10 1017.52 1017.95 1018.38 1018.80 1019.20 1019.58 1019.93 1020.27 1020.58 1020.88 1021.17
1014.52 1014.50 1014.48 1014.45 1014.40 1014.32 1014.18 1013.99 1013.73 1013.42 1013.08 1012.73 1012.39 1012.11 1011.91 1011.82 1011.84 1011.97 1012.20 1012.51 1012.88 1013.28 1013.69 1014.10 1014.49 1014.87 1015.24 1015.61 1015.99 1016.39 1016.81 1017.25 1017.70 1018.16 1018.62 1019.05 1019.46 1019.84 1020.19 1020.51 1020.81 1021.09 1021.36
1015.09 1015.07 1015.04 1014.97 1014.88 1014.74 1014.56 1014.32 1014.03 1013.69 1013.34 1012.98 1012.65 1012.38 1012.19 1012.09 1012.10 1012.22 1012.43 1012.72 1013.05 1013.42 1013.80 1014.18 1014.55 1014.92 1015.29 1015.68 1016.08 1016.50 1016.95 1017.42 1017.90 1018.38 1018.85 1019.29 1019.70 1020.07 1020.40 1020.70 1020.98 1021.24 1021.50
1015.65 1015.65 1015.61 1015.52 1015.40 1015.22 1015.00 1014.73 1014.42 1014.08 1013.73 1013.39 1013.08 1012.83 1012.65 1012.57 1012.58 1012.68 1012.86 1013.11 1013.40 1013.71 1014.04 1014.38 1014.72 1015.06 1015.42 1015.79 1016.20 1016.64 1017.10 1017.59 1018.08 1018.57 1019.04 1019.47 1019.87 1020.23 1020.54 1020.83 1021.09 1021.35 1021.61
1016.20 1016.20 1016.15 1016.05 1015.90 1015.70 1015.47 1015.19 1014.88 1014.55 1014.23 1013.92 1013.65 1013.43 1013.28 1013.21 1013.23 1013.32 1013.47 1013.67 1013.90 1014.16 1014.42 1014.70 1014.99 1015.29 1015.62 1015.98 1016.37 1016.80 1017.26 1017.75 1018.24 1018.72 1019.17 1019.60 1019.98 1020.32 1020.62 1020.90 1021.16 1021.42 1021.69
Thickness
5576 5575 5574 5572 5571 5569 5568 5567 5567 5567 5568 5568 5568 5569 5571 5573 5575 5577 5580 5583 5585 5588 5591 5593 5594 5597 5599 5601 5602 5603 5603 5603 5605 5605 5605 5606 5609 5611 5612 5614 5616 5617 5618
5570 5570 5568 5566 5565 5563 5562 5560 5560 5561 5561 5562 5562 5562 5563 5565 5568 5569 5572 5574 5576 5579 5582 5584 5585 5587 5589 5591 5593 5595 5595 5595 5597 5598 5598 5598 5599 5602 5604 5606 5607 5608 5609
5564 5563 5562 5560 5558 5557 5556 5556 5555 5555 5555 5556 5556 5556 5556 5557 5559 5561 5564 5565 5567 5570 5573 5575 5577 5578 5580 5582 5584 5586 5589 5589 5589 5592 5594 5593 5595 5594 5595 5597 5599 5600 5601
5558 5557 5556 5554 5553 5552 5551 5550 5549 5550 5550 5551 5551 5551 5551 5552 5553 5555 5556 5557 5559 5562 5565 5566 5568 5570 5572 5573 5576 5578 5581 5582 5582 5582 5585 5587 5590 5589 5587 5588 5590 5592 5593
5552 5553 5551 5549 5548 5546 5545 5544 5544 5544 5543 5544 5545 5545 5545 5545 5546 5547 5548 5549 5551 5554 5557 5558 5559 5562 5564 5565 5568 5570 5573 5575 5576 5576 5577 5578 5579 5581 5581 5581 5581 5582 5584
5548 5547 5546 5544 5543 5541 5539 5539 5538 5538 5537 5537 5537 5538 5539 5538 5539 5539 5540 5541 5543 5546 5548 5549 5550 5553 5556 5557 5559 5561 5564 5566 5568 5569 5570 5572 5573 5572 5574 5573 5572 5572 5574
5542 5541 5540 5539 5537 5535 5534 5532 5532 5532 5531 5531 5531 5532 5532 5532 5531 5532 5533 5534 5535 5538 5539 5541 5542 5545 5547 5549 5551 5553 5555 5557 5559 5561 5563 5564 5565 5566 5566 5566 5563 5563 5563
5536 5535 5534 5533 5531 5530 5528 5527 5526 5525 5525 5525 5524 5524 5524 5523 5523 5524 5526 5527 5529 5530 5531 5532 5534 5536 5539 5541 5543 5545 5546 5548 5550 5552 5554 5555 5555 5556 5558 5558 5556 5554 5553
5531 5530 5528 5527 5526 5524 5523 5522 5520 5520 5519 5518 5518 5516 5515 5515 5515 5516 5518 5519 5520 5521 5523 5524 5525 5527 5530 5532 5534 5536 5537 5539 5540 5542 5544 5545 5545 5546 5548 5549 5550 5549 5547
5524 5524 5522 5522 5520 5519 5518 5516 5515 5514 5513 5512 5511 5510 5508 5508 5508 5509 5510 5511 5512 5514 5515 5516 5517 5519 5521 5523 5524 5526 5528 5529 5530 5532 5533 5534 5535 5536 5537 5539 5540 5540 5540
5517 5517 5517 5516 5514 5513 5511 5510 5508 5508 5506 5505 5503 5502 5502 5501 5501 5502 5503 5504 5505 5506 5507 5508 5509 5510 5511 5513 5515 5516 5518 5520 5520 5521 5523 5523 5524 5525 5526 5528 5528 5529 5529
5511 5511 5511 5509 5508 5506 5505 5504 5503 5501 5500 5498 5497 5496 5495 5494 5494 5495 5496 5497 5498 5499 5499 5500 5501 5502 5503 5505 5505 5506 5507 5509 5511 5512 5512 5513 5514 5514 5516 5516 5517 5518 5518
5505 5504 5504 5503 5502 5500 5499 5498 5497 5496 5494 5492 5491 5489 5488 5487 5487 5488 5489 5489 5490 5491 5492 5493 5494 5495 5495 5496 5496 5497 5498 5500 5502 5503 5503 5504 5504 5504 5505 5505 5505 5506 5507
5498 5498 5498 5498 5496 5495 5494 5493 5492 5491 5489 5486 5484 5483 5482 5481 5481 5481 5482 5482 5483 5484 5485 5486 5486 5486 5487 5488 5488 5488 5490 5491 5492 5493 5495 5495 5495 5495 5495 5495 5495 5494 5494
5492 5492 5492 5491 5490 5488 5488 5488 5487 5485 5484 5481 5479 5478 5476 5475 5474 5474 5474 5475 5476 5476 5477 5477 5478 5478 5479 5480 5481 5481 5482 5482 5483 5484 5485 5486 5486 5487 5486 5486 5485 5484 5483
5487 5487 5487 5485 5484 5483 5482 5482 5480 5479 5477 5475 5473 5471 5470 5469 5468 5467 5467 5467 5468 5468 5469 5470 5470 5470 5472 5473 5474 5474 5475 5475 5476 5476 5476 5476 5476 5477 5478 5478 5478 5476 5474
5481 5481 5480 5479 5478 5477 5477 5476 5474 5472 5470 5468 5466 5464 5463 5462 5461 5460 5460 5459 5460 5460 5461 5462 5462 5463 5464 5465 5466 5466 5466 5467 5467 5467 5467 5467 5468 5467 5467 5468 5467 5466 5465
5474 5474 5473 5472 5471 5471 5470 5469 5467 5465 5463 5461 5458 5457 5456 5455 5454 5453 5452 5452 5452 5453 5453 5454 5454 5455 5455 5456 5457 5458 5457 5457 5458 5458 5458 5458 5458 5457 5457 5456 5455 5454 5453
5467 5467 5466 5465 5463 5463 5462 5460 5458 5456 5455 5453 5451 5450 5448 5447 5446 5445 5445 5444 5445 5445 5445 5445 5446 5446 5447 5448 5449 5450 5449 5448 5449 5449 5450 5449 5448 5448 5447 5446 5444 5443 5441
5457 5457 5456 5456 5455 5454 5453 5452 5449 5448 5446 5445 5444 5442 5441 5440 5438 5438 5437 5437 5437 5436 5436 5436 5436 5437 5438 5440 5441 5441 5440 5440 5440 5440 5440 5440 5440 5439 5437 5435 5433 5431 5430
5447 5447 5446 5445 5445 5444 5443 5442 5440 5438 5437 5437 5435 5434 5433 5432 5430 5429 5429 5428 5428 5427 5426 5427 5427 5428 5429 5431 5432 5431 5431 5431 5430 5430 5430 5430 5430 5429 5427 5425 5423 5422 5419
5435 5435 5435 5434 5433 5433 5433 5431 5430 5429 5428 5427 5426 5424 5423 5422 5421 5419 5419 5418 5417 5416 5415 5416 5416 5417 5418 5419 5421 5422 5422 5422 5421 5421 5420 5419 5418 5417 5415 5414 5412 5410 5407
5421 5422 5422 5422 5421 5421 5421 5420 5419 5419 5418 5417 5415 5413 5412 5411 5410 5409 5408 5407 5406 5405 5405 5405 5405 5406 5406 5407 5409 5411 5411 5411 5410 5410 5410 5408 5407 5406 5404 5402 5400 5397 5393
5408 5409 5409 5409 5408 5408 5409 5408 5408 5408 5408 5406 5404 5403 5401 5400 5399 5397 5397 5396 5395 5395 5395 5395 5395 5395 5395 5396 5397 5398 5398 5399 5398 5397 5397 5397 5395 5393 5391 5389 5387 5384 5381
5395 5396 5397 5397 5396 5396 5396 5396 5396 5397 5396 5394 5392 5391 5390 5389 5387 5386 5385 5385 5386 5386 5385 5385 5385 5385 5386 5386 5387 5387 5387 5387 5386 5385 5384 5383 5381 5379 5377 5375 5373 5371 5368
5384 5384 5385 5385 5384 5384 5383 5383 5384 5384 5384 5383 5381 5379 5378 5376 5375 5375 5374 5374 5375 5376 5376 5376 5376 5376 5377 5377 5377 5377 5377 5377 5376 5374 5372 5370 5369 5367 5365 5363 5361 5358 5355